Location: Newark
(40.9833°N, 0.0333°W)
Time: 19:55:28
(UTC+00:00)

Vanguard 2 Rocket - Pass Details

Date: 29 October 2020
Orbit: 554 x 3326 km, 32.9° (Epoch: 25 November)

Event Time Altitude Azimuth Distance (km) Brightness Sun altitude
Rises 17:28:18 0° 227° (SW) 2,807 10.6 -6.1°
Reaches altitude 10° 17:31:07 10° 207° (SSW) 1,825 9.1 -6.6°
Maximum altitude 17:33:52 18° 162° (SSE) 1,388 7.8 -7.1°
Drops below altitude 10° 17:36:46 10° 117° (ESE) 1,937 8.1 -7.7°
Enters shadow 17:37:54 - 108° (ESE) 2,316 8.5 -7.9°
Sets 17:39:53 0° 98° (E) 3,057 - -8.3°
